<?xml version="1.0" encoding="UTF-8" standalone="no" ?>
<gpx xmlns="http://www.topografix.com/GPX/1/1" xmlns:xsi="http://www.w3.org/2001/XMLSchema-instance" xsi:schemaLocation="http://www.topografix.com/GPX/1/1 http://www.topografix.com/GPX/1/1/gpx.xsd" version="1.1" creator="VisuGPX - https://www.visugpx.com">
  <metadata>
    <name>Maulevrier_LacVerdon2Provinces</name>
    <desc><![CDATA[gnerando idor:13126070_13136699_13136719]]></desc>
  </metadata>
  <trk>
    <name><![CDATA[Maulévrier_2ProvincesSTBarth_23km-13136719]]></name>
    <extensions>
      <line xmlns="http://www.topografix.com/GPX/gpx_style/0/2">
        <color>0000FF</color>
        <width>4</width>
      </line>
    </extensions>
    <trkseg>
      <trkpt lat="47.00205" lon="-0.76985">
        <ele>108</ele>
        <time>2023-11-05T12:41:55Z</time>
      </trkpt>
      <trkpt lat="47.00254" lon="-0.76927">
        <ele>108</ele>
        <time>2023-11-05T12:43:19Z</time>
      </trkpt>
      <trkpt lat="47.00357" lon="-0.77418">
        <ele>105</ele>
        <time>2023-11-05T12:51:07Z</time>
      </trkpt>
      <trkpt lat="47.00249" lon="-0.77707">
        <ele>105</ele>
        <time>2023-11-05T12:56:06Z</time>
      </trkpt>
      <trkpt lat="47.00254" lon="-0.77865">
        <ele>104</ele>
        <time>2023-11-05T12:58:30Z</time>
      </trkpt>
      <trkpt lat="47.00166" lon="-0.77937">
        <ele>107</ele>
        <time>2023-11-05T13:00:45Z</time>
      </trkpt>
      <trkpt lat="47.00136" lon="-0.78053">
        <ele>107</ele>
        <time>2023-11-05T13:02:38Z</time>
      </trkpt>
      <trkpt lat="47.00106" lon="-0.78262">
        <ele>111</ele>
        <time>2023-11-05T13:05:52Z</time>
      </trkpt>
      <trkpt lat="47.00185" lon="-0.78407">
        <ele>106</ele>
        <time>2023-11-05T13:08:41Z</time>
      </trkpt>
      <trkpt lat="47.00333" lon="-0.7863">
        <ele>104</ele>
        <time>2023-11-05T13:13:24Z</time>
      </trkpt>
      <trkpt lat="47.00377" lon="-0.78854">
        <ele>105</ele>
        <time>2023-11-05T13:16:56Z</time>
      </trkpt>
      <trkpt lat="47.00343" lon="-0.78933">
        <ele>106</ele>
        <time>2023-11-05T13:18:21Z</time>
      </trkpt>
      <trkpt lat="47.00234" lon="-0.78933">
        <ele>108</ele>
        <time>2023-11-05T13:20:47Z</time>
      </trkpt>
      <trkpt lat="47.00289" lon="-0.79078">
        <ele>108</ele>
        <time>2023-11-05T13:23:18Z</time>
      </trkpt>
      <trkpt lat="47.00436" lon="-0.78977">
        <ele>106</ele>
        <time>2023-11-05T13:26:54Z</time>
      </trkpt>
      <trkpt lat="47.00549" lon="-0.79027">
        <ele>105</ele>
        <time>2023-11-05T13:29:32Z</time>
      </trkpt>
      <trkpt lat="47.00668" lon="-0.79121">
        <ele>103</ele>
        <time>2023-11-05T13:32:32Z</time>
      </trkpt>
      <trkpt lat="47.00702" lon="-0.79302">
        <ele>103</ele>
        <time>2023-11-05T13:35:23Z</time>
      </trkpt>
      <trkpt lat="47.00584" lon="-0.79468">
        <ele>107</ele>
        <time>2023-11-05T13:39:01Z</time>
      </trkpt>
      <trkpt lat="47.00702" lon="-0.79533">
        <ele>103</ele>
        <time>2023-11-05T13:41:50Z</time>
      </trkpt>
      <trkpt lat="47.00672" lon="-0.79648">
        <ele>106</ele>
        <time>2023-11-05T13:43:42Z</time>
      </trkpt>
      <trkpt lat="47.00791" lon="-0.80009">
        <ele>103</ele>
        <time>2023-11-05T13:49:47Z</time>
      </trkpt>
      <trkpt lat="47.00643" lon="-0.8016">
        <ele>105</ele>
        <time>2023-11-05T13:53:47Z</time>
      </trkpt>
      <trkpt lat="47.0049" lon="-0.80428">
        <ele>104</ele>
        <time>2023-11-05T13:59:05Z</time>
      </trkpt>
      <trkpt lat="47.00323" lon="-0.80449">
        <ele>108</ele>
        <time>2023-11-05T14:02:49Z</time>
      </trkpt>
      <trkpt lat="47.00264" lon="-0.80709">
        <ele>106</ele>
        <time>2023-11-05T14:06:58Z</time>
      </trkpt>
      <trkpt lat="47.0022" lon="-0.81452">
        <ele>122</ele>
        <time>2023-11-05T14:18:17Z</time>
      </trkpt>
      <trkpt lat="47.00106" lon="-0.81452">
        <ele>125</ele>
        <time>2023-11-05T14:20:49Z</time>
      </trkpt>
      <trkpt lat="46.99777" lon="-0.81806">
        <ele>132</ele>
        <time>2023-11-05T14:29:54Z</time>
      </trkpt>
      <trkpt lat="46.99442" lon="-0.81149">
        <ele>114</ele>
        <time>2023-11-05T14:42:20Z</time>
      </trkpt>
      <trkpt lat="46.99009" lon="-0.80738">
        <ele>136</ele>
        <time>2023-11-05T14:53:49Z</time>
      </trkpt>
      <trkpt lat="46.98871" lon="-0.80962">
        <ele>136</ele>
        <time>2023-11-05T14:58:23Z</time>
      </trkpt>
      <trkpt lat="46.98502" lon="-0.80752">
        <ele>168</ele>
        <time>2023-11-05T15:07:12Z</time>
      </trkpt>
      <trkpt lat="46.98723" lon="-0.80305">
        <ele>166</ele>
        <time>2023-11-05T15:15:34Z</time>
      </trkpt>
      <trkpt lat="46.98969" lon="-0.79691">
        <ele>157</ele>
        <time>2023-11-05T15:26:22Z</time>
      </trkpt>
      <trkpt lat="46.99432" lon="-0.78912">
        <ele>150</ele>
        <time>2023-11-05T15:42:03Z</time>
      </trkpt>
      <trkpt lat="46.99693" lon="-0.78486">
        <ele>137</ele>
        <time>2023-11-05T15:50:44Z</time>
      </trkpt>
      <trkpt lat="47.0017" lon="-0.77945">
        <ele>106</ele>
        <time>2023-11-05T16:04:09Z</time>
      </trkpt>
      <trkpt lat="47.00269" lon="-0.77865">
        <ele>103</ele>
        <time>2023-11-05T16:06:40Z</time>
      </trkpt>
      <trkpt lat="47.0025" lon="-0.77685">
        <ele>106</ele>
        <time>2023-11-05T16:09:25Z</time>
      </trkpt>
      <trkpt lat="47.00376" lon="-0.77409">
        <ele>104</ele>
        <time>2023-11-05T16:14:28Z</time>
      </trkpt>
      <trkpt lat="47.00251" lon="-0.76923">
        <ele>107</ele>
        <time>2023-11-05T16:22:20Z</time>
      </trkpt>
      <trkpt lat="47.00197" lon="-0.76976">
        <ele>108</ele>
        <time>2023-11-05T16:23:47Z</time>
      </trkpt>
      <trkpt lat="47.00273" lon="-0.76878">
        <ele>109</ele>
        <time>2023-11-05T16:26:02Z</time>
      </trkpt>
      <trkpt lat="47.00328" lon="-0.76769">
        <ele>113</ele>
        <time>2023-11-05T16:28:06Z</time>
      </trkpt>
      <trkpt lat="47.00324" lon="-0.76869">
        <ele>112</ele>
        <time>2023-11-05T16:29:37Z</time>
      </trkpt>
      <trkpt lat="47.00362" lon="-0.77019">
        <ele>110</ele>
        <time>2023-11-05T16:32:02Z</time>
      </trkpt>
      <trkpt lat="47.00412" lon="-0.77054">
        <ele>107</ele>
        <time>2023-11-05T16:33:16Z</time>
      </trkpt>
      <trkpt lat="47.00478" lon="-0.77004">
        <ele>110</ele>
        <time>2023-11-05T16:34:55Z</time>
      </trkpt>
      <trkpt lat="47.00489" lon="-0.76966">
        <ele>111</ele>
        <time>2023-11-05T16:35:33Z</time>
      </trkpt>
      <trkpt lat="47.00555" lon="-0.76938">
        <ele>110</ele>
        <time>2023-11-05T16:37:05Z</time>
      </trkpt>
      <trkpt lat="47.00559" lon="-0.77013">
        <ele>109</ele>
        <time>2023-11-05T16:38:13Z</time>
      </trkpt>
      <trkpt lat="47.00461" lon="-0.77137">
        <ele>106</ele>
        <time>2023-11-05T16:41:06Z</time>
      </trkpt>
      <trkpt lat="47.00488" lon="-0.77418">
        <ele>113</ele>
        <time>2023-11-05T16:45:24Z</time>
      </trkpt>
      <trkpt lat="47.00423" lon="-0.77554">
        <ele>106</ele>
        <time>2023-11-05T16:47:55Z</time>
      </trkpt>
      <trkpt lat="47.00461" lon="-0.77897">
        <ele>107</ele>
        <time>2023-11-05T16:53:11Z</time>
      </trkpt>
      <trkpt lat="47.00478" lon="-0.77972">
        <ele>107</ele>
        <time>2023-11-05T16:54:23Z</time>
      </trkpt>
      <trkpt lat="47.00323" lon="-0.78137">
        <ele>105</ele>
        <time>2023-11-05T16:58:39Z</time>
      </trkpt>
      <trkpt lat="47.00318" lon="-0.78146">
        <ele>105</ele>
        <time>2023-11-05T16:58:49Z</time>
      </trkpt>
      <trkpt lat="47.00303" lon="-0.7821">
        <ele>104</ele>
        <time>2023-11-05T16:59:51Z</time>
      </trkpt>
      <trkpt lat="47.00494" lon="-0.78455">
        <ele>104</ele>
        <time>2023-11-05T17:05:30Z</time>
      </trkpt>
      <trkpt lat="47.00554" lon="-0.78509">
        <ele>104</ele>
        <time>2023-11-05T17:07:04Z</time>
      </trkpt>
      <trkpt lat="47.00606" lon="-0.78515">
        <ele>106</ele>
        <time>2023-11-05T17:08:13Z</time>
      </trkpt>
      <trkpt lat="47.00688" lon="-0.78736">
        <ele>104</ele>
        <time>2023-11-05T17:12:02Z</time>
      </trkpt>
      <trkpt lat="47.0076" lon="-0.78785">
        <ele>105</ele>
        <time>2023-11-05T17:13:48Z</time>
      </trkpt>
      <trkpt lat="47.00836" lon="-0.78787">
        <ele>108</ele>
        <time>2023-11-05T17:15:30Z</time>
      </trkpt>
      <trkpt lat="47.00878" lon="-0.78893">
        <ele>111</ele>
        <time>2023-11-05T17:17:21Z</time>
      </trkpt>
      <trkpt lat="47.00867" lon="-0.79111">
        <ele>113</ele>
        <time>2023-11-05T17:20:40Z</time>
      </trkpt>
      <trkpt lat="47.00843" lon="-0.79332">
        <ele>108</ele>
        <time>2023-11-05T17:24:04Z</time>
      </trkpt>
      <trkpt lat="47.00903" lon="-0.79487">
        <ele>104</ele>
        <time>2023-11-05T17:26:46Z</time>
      </trkpt>
      <trkpt lat="47.00973" lon="-0.79499">
        <ele>103</ele>
        <time>2023-11-05T17:28:20Z</time>
      </trkpt>
      <trkpt lat="47.01055" lon="-0.79466">
        <ele>107</ele>
        <time>2023-11-05T17:30:13Z</time>
      </trkpt>
      <trkpt lat="47.01225" lon="-0.79311">
        <ele>110</ele>
        <time>2023-11-05T17:34:41Z</time>
      </trkpt>
      <trkpt lat="47.01077" lon="-0.79551">
        <ele>108</ele>
        <time>2023-11-05T17:39:35Z</time>
      </trkpt>
      <trkpt lat="47.00978" lon="-0.79674">
        <ele>106</ele>
        <time>2023-11-05T17:42:28Z</time>
      </trkpt>
      <trkpt lat="47.00998" lon="-0.79856">
        <ele>105</ele>
        <time>2023-11-05T17:45:16Z</time>
      </trkpt>
      <trkpt lat="47.01115" lon="-0.79981">
        <ele>109</ele>
        <time>2023-11-05T17:48:29Z</time>
      </trkpt>
      <trkpt lat="47.01121" lon="-0.80075">
        <ele>106</ele>
        <time>2023-11-05T17:49:55Z</time>
      </trkpt>
      <trkpt lat="47.01278" lon="-0.80227">
        <ele>110</ele>
        <time>2023-11-05T17:54:06Z</time>
      </trkpt>
      <trkpt lat="47.01266" lon="-0.80294">
        <ele>111</ele>
        <time>2023-11-05T17:55:09Z</time>
      </trkpt>
      <trkpt lat="47.01123" lon="-0.80251">
        <ele>105</ele>
        <time>2023-11-05T17:58:24Z</time>
      </trkpt>
      <trkpt lat="47.01089" lon="-0.80408">
        <ele>106</ele>
        <time>2023-11-05T18:00:54Z</time>
      </trkpt>
      <trkpt lat="47.01127" lon="-0.80476">
        <ele>107</ele>
        <time>2023-11-05T18:02:14Z</time>
      </trkpt>
      <trkpt lat="47.01077" lon="-0.80667">
        <ele>104</ele>
        <time>2023-11-05T18:05:20Z</time>
      </trkpt>
      <trkpt lat="47.01167" lon="-0.80877">
        <ele>107</ele>
        <time>2023-11-05T18:09:06Z</time>
      </trkpt>
      <trkpt lat="47.01194" lon="-0.81048">
        <ele>106</ele>
        <time>2023-11-05T18:11:45Z</time>
      </trkpt>
      <trkpt lat="47.01489" lon="-0.80903">
        <ele>115</ele>
        <time>2023-11-05T18:18:40Z</time>
      </trkpt>
      <trkpt lat="47.01558" lon="-0.81059">
        <ele>113</ele>
        <time>2023-11-05T18:21:30Z</time>
      </trkpt>
      <trkpt lat="47.01647" lon="-0.81163">
        <ele>117</ele>
        <time>2023-11-05T18:24:01Z</time>
      </trkpt>
      <trkpt lat="47.0174" lon="-0.81098">
        <ele>121</ele>
        <time>2023-11-05T18:26:19Z</time>
      </trkpt>
      <trkpt lat="47.01905" lon="-0.81189">
        <ele>127</ele>
        <time>2023-11-05T18:30:14Z</time>
      </trkpt>
      <trkpt lat="47.02075" lon="-0.80532">
        <ele>133</ele>
        <time>2023-11-05T18:40:53Z</time>
      </trkpt>
      <trkpt lat="47.02161" lon="-0.80005">
        <ele>127</ele>
        <time>2023-11-05T18:49:06Z</time>
      </trkpt>
      <trkpt lat="47.021" lon="-0.79839">
        <ele>126</ele>
        <time>2023-11-05T18:51:58Z</time>
      </trkpt>
      <trkpt lat="47.01566" lon="-0.79904">
        <ele>127</ele>
        <time>2023-11-05T19:03:53Z</time>
      </trkpt>
      <trkpt lat="47.01453" lon="-0.79532">
        <ele>124</ele>
        <time>2023-11-05T19:10:04Z</time>
      </trkpt>
      <trkpt lat="47.0131" lon="-0.79363">
        <ele>113</ele>
        <time>2023-11-05T19:14:09Z</time>
      </trkpt>
      <trkpt lat="47.0128" lon="-0.79186">
        <ele>111</ele>
        <time>2023-11-05T19:16:55Z</time>
      </trkpt>
      <trkpt lat="47.01209" lon="-0.78908">
        <ele>119</ele>
        <time>2023-11-05T19:21:25Z</time>
      </trkpt>
      <trkpt lat="47.01123" lon="-0.7867">
        <ele>126</ele>
        <time>2023-11-05T19:25:30Z</time>
      </trkpt>
      <trkpt lat="47.00891" lon="-0.78731">
        <ele>115</ele>
        <time>2023-11-05T19:30:44Z</time>
      </trkpt>
      <trkpt lat="47.00823" lon="-0.78586">
        <ele>117</ele>
        <time>2023-11-05T19:33:25Z</time>
      </trkpt>
      <trkpt lat="47.0076" lon="-0.78526">
        <ele>114</ele>
        <time>2023-11-05T19:35:05Z</time>
      </trkpt>
      <trkpt lat="47.0056" lon="-0.78501">
        <ele>104</ele>
        <time>2023-11-05T19:39:33Z</time>
      </trkpt>
      <trkpt lat="47.00303" lon="-0.78219">
        <ele>104</ele>
        <time>2023-11-05T19:46:41Z</time>
      </trkpt>
      <trkpt lat="47.00339" lon="-0.78119">
        <ele>105</ele>
        <time>2023-11-05T19:48:24Z</time>
      </trkpt>
      <trkpt lat="47.00475" lon="-0.77976">
        <ele>107</ele>
        <time>2023-11-05T19:52:07Z</time>
      </trkpt>
      <trkpt lat="47.00417" lon="-0.77579">
        <ele>105</ele>
        <time>2023-11-05T19:58:17Z</time>
      </trkpt>
      <trkpt lat="47.00497" lon="-0.77405">
        <ele>114</ele>
        <time>2023-11-05T20:01:28Z</time>
      </trkpt>
      <trkpt lat="47.00473" lon="-0.77146">
        <ele>107</ele>
        <time>2023-11-05T20:05:26Z</time>
      </trkpt>
      <trkpt lat="47.00561" lon="-0.77027">
        <ele>109</ele>
        <time>2023-11-05T20:08:05Z</time>
      </trkpt>
      <trkpt lat="47.00555" lon="-0.76931">
        <ele>110</ele>
        <time>2023-11-05T20:09:33Z</time>
      </trkpt>
      <trkpt lat="47.00424" lon="-0.77054">
        <ele>107</ele>
        <time>2023-11-05T20:13:01Z</time>
      </trkpt>
      <trkpt lat="47.00354" lon="-0.77012">
        <ele>111</ele>
        <time>2023-11-05T20:14:41Z</time>
      </trkpt>
      <trkpt lat="47.00319" lon="-0.76857">
        <ele>112</ele>
        <time>2023-11-05T20:17:10Z</time>
      </trkpt>
      <trkpt lat="47.00333" lon="-0.76758">
        <ele>113</ele>
        <time>2023-11-05T20:18:42Z</time>
      </trkpt>
      <trkpt lat="47.00193" lon="-0.76991">
        <ele>108</ele>
        <time>2023-11-05T20:23:25Z</time>
      </trkpt>
    </trkseg>
  </trk>
  <trk>
    <name><![CDATA[LaTessoualle_DeuxProvinces_11km-13136699]]></name>
    <extensions>
      <line xmlns="http://www.topografix.com/GPX/gpx_style/0/2">
        <color>00FF00</color>
        <width>4</width>
      </line>
    </extensions>
    <trkseg>
      <trkpt lat="47.00205" lon="-0.76985">
        <ele>108</ele>
        <time>2023-11-05T12:41:37Z</time>
      </trkpt>
      <trkpt lat="47.00254" lon="-0.76927">
        <ele>108</ele>
        <time>2023-11-05T12:43:01Z</time>
      </trkpt>
      <trkpt lat="47.00357" lon="-0.77418">
        <ele>105</ele>
        <time>2023-11-05T12:50:49Z</time>
      </trkpt>
      <trkpt lat="47.00249" lon="-0.77707">
        <ele>105</ele>
        <time>2023-11-05T12:55:48Z</time>
      </trkpt>
      <trkpt lat="47.00254" lon="-0.77865">
        <ele>104</ele>
        <time>2023-11-05T12:58:12Z</time>
      </trkpt>
      <trkpt lat="47.00166" lon="-0.77937">
        <ele>107</ele>
        <time>2023-11-05T13:00:27Z</time>
      </trkpt>
      <trkpt lat="47.00136" lon="-0.78053">
        <ele>107</ele>
        <time>2023-11-05T13:02:20Z</time>
      </trkpt>
      <trkpt lat="47.00106" lon="-0.78262">
        <ele>111</ele>
        <time>2023-11-05T13:05:34Z</time>
      </trkpt>
      <trkpt lat="47.00185" lon="-0.78407">
        <ele>106</ele>
        <time>2023-11-05T13:08:23Z</time>
      </trkpt>
      <trkpt lat="47.00333" lon="-0.7863">
        <ele>104</ele>
        <time>2023-11-05T13:13:06Z</time>
      </trkpt>
      <trkpt lat="47.00377" lon="-0.78854">
        <ele>105</ele>
        <time>2023-11-05T13:16:38Z</time>
      </trkpt>
      <trkpt lat="47.00343" lon="-0.78933">
        <ele>106</ele>
        <time>2023-11-05T13:18:03Z</time>
      </trkpt>
      <trkpt lat="47.00234" lon="-0.78933">
        <ele>108</ele>
        <time>2023-11-05T13:20:29Z</time>
      </trkpt>
      <trkpt lat="47.00289" lon="-0.79078">
        <ele>108</ele>
        <time>2023-11-05T13:23:00Z</time>
      </trkpt>
      <trkpt lat="47.00436" lon="-0.78977">
        <ele>106</ele>
        <time>2023-11-05T13:26:36Z</time>
      </trkpt>
      <trkpt lat="47.00549" lon="-0.79027">
        <ele>105</ele>
        <time>2023-11-05T13:29:14Z</time>
      </trkpt>
      <trkpt lat="47.00668" lon="-0.79121">
        <ele>103</ele>
        <time>2023-11-05T13:32:14Z</time>
      </trkpt>
      <trkpt lat="47.00702" lon="-0.79302">
        <ele>103</ele>
        <time>2023-11-05T13:35:05Z</time>
      </trkpt>
      <trkpt lat="47.00584" lon="-0.79468">
        <ele>107</ele>
        <time>2023-11-05T13:38:43Z</time>
      </trkpt>
      <trkpt lat="47.00702" lon="-0.79533">
        <ele>103</ele>
        <time>2023-11-05T13:41:32Z</time>
      </trkpt>
      <trkpt lat="47.00672" lon="-0.79648">
        <ele>106</ele>
        <time>2023-11-05T13:43:24Z</time>
      </trkpt>
      <trkpt lat="47.00791" lon="-0.80009">
        <ele>103</ele>
        <time>2023-11-05T13:49:29Z</time>
      </trkpt>
      <trkpt lat="47.00643" lon="-0.8016">
        <ele>105</ele>
        <time>2023-11-05T13:53:29Z</time>
      </trkpt>
      <trkpt lat="47.0049" lon="-0.80428">
        <ele>104</ele>
        <time>2023-11-05T13:58:47Z</time>
      </trkpt>
      <trkpt lat="47.00323" lon="-0.80449">
        <ele>108</ele>
        <time>2023-11-05T14:02:31Z</time>
      </trkpt>
      <trkpt lat="47.00264" lon="-0.80709">
        <ele>106</ele>
        <time>2023-11-05T14:06:40Z</time>
      </trkpt>
      <trkpt lat="47.0022" lon="-0.81452">
        <ele>122</ele>
        <time>2023-11-05T14:17:59Z</time>
      </trkpt>
      <trkpt lat="47.00106" lon="-0.81452">
        <ele>125</ele>
        <time>2023-11-05T14:20:31Z</time>
      </trkpt>
      <trkpt lat="46.99777" lon="-0.81806">
        <ele>132</ele>
        <time>2023-11-05T14:29:36Z</time>
      </trkpt>
      <trkpt lat="46.99442" lon="-0.81149">
        <ele>114</ele>
        <time>2023-11-05T14:42:02Z</time>
      </trkpt>
      <trkpt lat="46.99009" lon="-0.80738">
        <ele>136</ele>
        <time>2023-11-05T14:53:31Z</time>
      </trkpt>
      <trkpt lat="46.98871" lon="-0.80962">
        <ele>136</ele>
        <time>2023-11-05T14:58:05Z</time>
      </trkpt>
      <trkpt lat="46.98502" lon="-0.80752">
        <ele>168</ele>
        <time>2023-11-05T15:06:54Z</time>
      </trkpt>
      <trkpt lat="46.98723" lon="-0.80305">
        <ele>166</ele>
        <time>2023-11-05T15:15:16Z</time>
      </trkpt>
      <trkpt lat="46.98969" lon="-0.79691">
        <ele>157</ele>
        <time>2023-11-05T15:26:04Z</time>
      </trkpt>
      <trkpt lat="46.99432" lon="-0.78912">
        <ele>150</ele>
        <time>2023-11-05T15:41:45Z</time>
      </trkpt>
      <trkpt lat="46.99693" lon="-0.78486">
        <ele>137</ele>
        <time>2023-11-05T15:50:26Z</time>
      </trkpt>
      <trkpt lat="47.0017" lon="-0.77945">
        <ele>106</ele>
        <time>2023-11-05T16:03:51Z</time>
      </trkpt>
      <trkpt lat="47.00269" lon="-0.77865">
        <ele>103</ele>
        <time>2023-11-05T16:06:22Z</time>
      </trkpt>
      <trkpt lat="47.0025" lon="-0.77685">
        <ele>106</ele>
        <time>2023-11-05T16:09:07Z</time>
      </trkpt>
      <trkpt lat="47.00376" lon="-0.77409">
        <ele>104</ele>
        <time>2023-11-05T16:14:10Z</time>
      </trkpt>
      <trkpt lat="47.00251" lon="-0.76923">
        <ele>107</ele>
        <time>2023-11-05T16:22:02Z</time>
      </trkpt>
      <trkpt lat="47.00197" lon="-0.76976">
        <ele>108</ele>
        <time>2023-11-05T16:23:29Z</time>
      </trkpt>
    </trkseg>
  </trk>
  <trk>
    <name><![CDATA[Clisson_LacVerdon_22.2km-13126070]]></name>
    <extensions>
      <line xmlns="http://www.topografix.com/GPX/gpx_style/0/2">
        <color>FF0000</color>
        <width>4</width>
      </line>
    </extensions>
    <trkseg>
      <trkpt lat="47.00643" lon="-0.74441">
        <ele>120</ele>
        <time>2023-11-05T12:41:25Z</time>
      </trkpt>
      <trkpt lat="47.0061" lon="-0.74475">
        <ele>120</ele>
        <time>2023-11-05T12:42:19Z</time>
      </trkpt>
      <trkpt lat="47.00567" lon="-0.74464">
        <ele>122</ele>
        <time>2023-11-05T12:43:17Z</time>
      </trkpt>
      <trkpt lat="47.00529" lon="-0.74558">
        <ele>128</ele>
        <time>2023-11-05T12:44:57Z</time>
      </trkpt>
      <trkpt lat="47.00504" lon="-0.74693">
        <ele>129</ele>
        <time>2023-11-05T12:47:04Z</time>
      </trkpt>
      <trkpt lat="47.00524" lon="-0.74822">
        <ele>125</ele>
        <time>2023-11-05T12:49:04Z</time>
      </trkpt>
      <trkpt lat="47.0051" lon="-0.74923">
        <ele>122</ele>
        <time>2023-11-05T12:50:38Z</time>
      </trkpt>
      <trkpt lat="47.00451" lon="-0.75011">
        <ele>125</ele>
        <time>2023-11-05T12:52:30Z</time>
      </trkpt>
      <trkpt lat="47.00424" lon="-0.75139">
        <ele>123</ele>
        <time>2023-11-05T12:54:32Z</time>
      </trkpt>
      <trkpt lat="47.00452" lon="-0.75192">
        <ele>121</ele>
        <time>2023-11-05T12:55:33Z</time>
      </trkpt>
      <trkpt lat="47.00468" lon="-0.75222">
        <ele>121</ele>
        <time>2023-11-05T12:56:08Z</time>
      </trkpt>
      <trkpt lat="47.00406" lon="-0.7537">
        <ele>117</ele>
        <time>2023-11-05T12:58:46Z</time>
      </trkpt>
      <trkpt lat="47.00344" lon="-0.75504">
        <ele>119</ele>
        <time>2023-11-05T13:01:13Z</time>
      </trkpt>
      <trkpt lat="47.00265" lon="-0.75691">
        <ele>114</ele>
        <time>2023-11-05T13:04:34Z</time>
      </trkpt>
      <trkpt lat="47.00151" lon="-0.75791">
        <ele>108</ele>
        <time>2023-11-05T13:07:31Z</time>
      </trkpt>
      <trkpt lat="47.00188" lon="-0.75931">
        <ele>111</ele>
        <time>2023-11-05T13:09:47Z</time>
      </trkpt>
      <trkpt lat="47.00175" lon="-0.75949">
        <ele>109</ele>
        <time>2023-11-05T13:10:11Z</time>
      </trkpt>
      <trkpt lat="47.00175" lon="-0.76">
        <ele>110</ele>
        <time>2023-11-05T13:10:58Z</time>
      </trkpt>
      <trkpt lat="47.00158" lon="-0.76027">
        <ele>109</ele>
        <time>2023-11-05T13:11:31Z</time>
      </trkpt>
      <trkpt lat="47.00159" lon="-0.76092">
        <ele>108</ele>
        <time>2023-11-05T13:12:30Z</time>
      </trkpt>
      <trkpt lat="47.00073" lon="-0.76298">
        <ele>114</ele>
        <time>2023-11-05T13:16:10Z</time>
      </trkpt>
      <trkpt lat="47.00111" lon="-0.76651">
        <ele>112</ele>
        <time>2023-11-05T13:21:35Z</time>
      </trkpt>
      <trkpt lat="47.00113" lon="-0.76711">
        <ele>110</ele>
        <time>2023-11-05T13:22:30Z</time>
      </trkpt>
      <trkpt lat="47.00184" lon="-0.76983">
        <ele>107</ele>
        <time>2023-11-05T13:26:55Z</time>
      </trkpt>
      <trkpt lat="47.00201" lon="-0.77001">
        <ele>108</ele>
        <time>2023-11-05T13:27:23Z</time>
      </trkpt>
      <trkpt lat="47.00232" lon="-0.76935">
        <ele>107</ele>
        <time>2023-11-05T13:28:36Z</time>
      </trkpt>
      <trkpt lat="47.00274" lon="-0.76963">
        <ele>109</ele>
        <time>2023-11-05T13:29:38Z</time>
      </trkpt>
      <trkpt lat="47.00316" lon="-0.77142">
        <ele>106</ele>
        <time>2023-11-05T13:32:30Z</time>
      </trkpt>
      <trkpt lat="47.00377" lon="-0.77409">
        <ele>104</ele>
        <time>2023-11-05T13:36:46Z</time>
      </trkpt>
      <trkpt lat="47.0033" lon="-0.77535">
        <ele>105</ele>
        <time>2023-11-05T13:38:57Z</time>
      </trkpt>
      <trkpt lat="47.00243" lon="-0.77705">
        <ele>106</ele>
        <time>2023-11-05T13:42:10Z</time>
      </trkpt>
      <trkpt lat="47.00263" lon="-0.77797">
        <ele>104</ele>
        <time>2023-11-05T13:43:38Z</time>
      </trkpt>
      <trkpt lat="47.00241" lon="-0.77869">
        <ele>104</ele>
        <time>2023-11-05T13:44:50Z</time>
      </trkpt>
      <trkpt lat="47.00183" lon="-0.77909">
        <ele>106</ele>
        <time>2023-11-05T13:46:15Z</time>
      </trkpt>
      <trkpt lat="47.00122" lon="-0.78041">
        <ele>109</ele>
        <time>2023-11-05T13:48:41Z</time>
      </trkpt>
      <trkpt lat="47.00132" lon="-0.78086">
        <ele>107</ele>
        <time>2023-11-05T13:49:24Z</time>
      </trkpt>
      <trkpt lat="47.00122" lon="-0.7825">
        <ele>108</ele>
        <time>2023-11-05T13:51:53Z</time>
      </trkpt>
      <trkpt lat="47.00166" lon="-0.78349">
        <ele>106</ele>
        <time>2023-11-05T13:53:41Z</time>
      </trkpt>
      <trkpt lat="47.00182" lon="-0.78396">
        <ele>106</ele>
        <time>2023-11-05T13:54:29Z</time>
      </trkpt>
      <trkpt lat="47.00216" lon="-0.78429">
        <ele>105</ele>
        <time>2023-11-05T13:55:23Z</time>
      </trkpt>
      <trkpt lat="47.00307" lon="-0.78598">
        <ele>105</ele>
        <time>2023-11-05T13:58:39Z</time>
      </trkpt>
      <trkpt lat="47.00364" lon="-0.7873">
        <ele>105</ele>
        <time>2023-11-05T14:01:01Z</time>
      </trkpt>
      <trkpt lat="47.00388" lon="-0.78867">
        <ele>104</ele>
        <time>2023-11-05T14:03:10Z</time>
      </trkpt>
      <trkpt lat="47.00383" lon="-0.78907">
        <ele>105</ele>
        <time>2023-11-05T14:03:47Z</time>
      </trkpt>
      <trkpt lat="47.00321" lon="-0.7895">
        <ele>106</ele>
        <time>2023-11-05T14:05:19Z</time>
      </trkpt>
      <trkpt lat="47.00232" lon="-0.78925">
        <ele>108</ele>
        <time>2023-11-05T14:07:20Z</time>
      </trkpt>
      <trkpt lat="47.00294" lon="-0.79089">
        <ele>108</ele>
        <time>2023-11-05T14:10:10Z</time>
      </trkpt>
      <trkpt lat="47.00467" lon="-0.78948">
        <ele>104</ele>
        <time>2023-11-05T14:14:34Z</time>
      </trkpt>
      <trkpt lat="47.00531" lon="-0.78984">
        <ele>104</ele>
        <time>2023-11-05T14:16:06Z</time>
      </trkpt>
      <trkpt lat="47.00565" lon="-0.79087">
        <ele>106</ele>
        <time>2023-11-05T14:17:50Z</time>
      </trkpt>
      <trkpt lat="47.00658" lon="-0.79111">
        <ele>103</ele>
        <time>2023-11-05T14:19:56Z</time>
      </trkpt>
      <trkpt lat="47.00697" lon="-0.79289">
        <ele>103</ele>
        <time>2023-11-05T14:22:46Z</time>
      </trkpt>
      <trkpt lat="47.00643" lon="-0.79385">
        <ele>104</ele>
        <time>2023-11-05T14:24:39Z</time>
      </trkpt>
      <trkpt lat="47.00574" lon="-0.79464">
        <ele>107</ele>
        <time>2023-11-05T14:26:36Z</time>
      </trkpt>
      <trkpt lat="47.00688" lon="-0.79482">
        <ele>103</ele>
        <time>2023-11-05T14:29:09Z</time>
      </trkpt>
      <trkpt lat="47.00701" lon="-0.79571">
        <ele>103</ele>
        <time>2023-11-05T14:30:32Z</time>
      </trkpt>
      <trkpt lat="47.00666" lon="-0.79632">
        <ele>106</ele>
        <time>2023-11-05T14:31:45Z</time>
      </trkpt>
      <trkpt lat="47.00702" lon="-0.79677">
        <ele>105</ele>
        <time>2023-11-05T14:32:48Z</time>
      </trkpt>
      <trkpt lat="47.00714" lon="-0.79758">
        <ele>106</ele>
        <time>2023-11-05T14:34:03Z</time>
      </trkpt>
      <trkpt lat="47.00716" lon="-0.79787">
        <ele>107</ele>
        <time>2023-11-05T14:34:30Z</time>
      </trkpt>
      <trkpt lat="47.0075" lon="-0.79849">
        <ele>106</ele>
        <time>2023-11-05T14:35:42Z</time>
      </trkpt>
      <trkpt lat="47.00794" lon="-0.79953">
        <ele>105</ele>
        <time>2023-11-05T14:37:33Z</time>
      </trkpt>
      <trkpt lat="47.00794" lon="-0.80007">
        <ele>103</ele>
        <time>2023-11-05T14:38:23Z</time>
      </trkpt>
      <trkpt lat="47.00696" lon="-0.8009">
        <ele>105</ele>
        <time>2023-11-05T14:40:54Z</time>
      </trkpt>
      <trkpt lat="47.00632" lon="-0.8017">
        <ele>106</ele>
        <time>2023-11-05T14:42:46Z</time>
      </trkpt>
      <trkpt lat="47.006" lon="-0.80256">
        <ele>103</ele>
        <time>2023-11-05T14:44:15Z</time>
      </trkpt>
      <trkpt lat="47.00557" lon="-0.80312">
        <ele>105</ele>
        <time>2023-11-05T14:45:32Z</time>
      </trkpt>
      <trkpt lat="47.00545" lon="-0.80361">
        <ele>104</ele>
        <time>2023-11-05T14:46:19Z</time>
      </trkpt>
      <trkpt lat="47.00445" lon="-0.80457">
        <ele>105</ele>
        <time>2023-11-05T14:48:59Z</time>
      </trkpt>
      <trkpt lat="47.00318" lon="-0.80449">
        <ele>108</ele>
        <time>2023-11-05T14:51:48Z</time>
      </trkpt>
      <trkpt lat="47.00282" lon="-0.80558">
        <ele>103</ele>
        <time>2023-11-05T14:53:38Z</time>
      </trkpt>
      <trkpt lat="47.00263" lon="-0.80689">
        <ele>105</ele>
        <time>2023-11-05T14:55:40Z</time>
      </trkpt>
      <trkpt lat="47.00314" lon="-0.80715">
        <ele>106</ele>
        <time>2023-11-05T14:56:52Z</time>
      </trkpt>
      <trkpt lat="47.00415" lon="-0.80682">
        <ele>105</ele>
        <time>2023-11-05T14:59:10Z</time>
      </trkpt>
      <trkpt lat="47.0045" lon="-0.80662">
        <ele>105</ele>
        <time>2023-11-05T15:00:01Z</time>
      </trkpt>
      <trkpt lat="47.00483" lon="-0.80711">
        <ele>106</ele>
        <time>2023-11-05T15:01:03Z</time>
      </trkpt>
      <trkpt lat="47.00499" lon="-0.80794">
        <ele>107</ele>
        <time>2023-11-05T15:02:22Z</time>
      </trkpt>
      <trkpt lat="47.0053" lon="-0.80767">
        <ele>107</ele>
        <time>2023-11-05T15:03:10Z</time>
      </trkpt>
      <trkpt lat="47.00553" lon="-0.80632">
        <ele>106</ele>
        <time>2023-11-05T15:05:16Z</time>
      </trkpt>
      <trkpt lat="47.00565" lon="-0.80498">
        <ele>104</ele>
        <time>2023-11-05T15:07:19Z</time>
      </trkpt>
      <trkpt lat="47.0072" lon="-0.80305">
        <ele>104</ele>
        <time>2023-11-05T15:11:51Z</time>
      </trkpt>
      <trkpt lat="47.0078" lon="-0.80285">
        <ele>104</ele>
        <time>2023-11-05T15:13:13Z</time>
      </trkpt>
      <trkpt lat="47.00807" lon="-0.80336">
        <ele>104</ele>
        <time>2023-11-05T15:14:12Z</time>
      </trkpt>
      <trkpt lat="47.008" lon="-0.80392">
        <ele>107</ele>
        <time>2023-11-05T15:15:03Z</time>
      </trkpt>
      <trkpt lat="47.00868" lon="-0.80484">
        <ele>105</ele>
        <time>2023-11-05T15:17:07Z</time>
      </trkpt>
      <trkpt lat="47.0088" lon="-0.80529">
        <ele>105</ele>
        <time>2023-11-05T15:17:51Z</time>
      </trkpt>
      <trkpt lat="47.00861" lon="-0.80628">
        <ele>105</ele>
        <time>2023-11-05T15:19:24Z</time>
      </trkpt>
      <trkpt lat="47.00857" lon="-0.80679">
        <ele>105</ele>
        <time>2023-11-05T15:20:11Z</time>
      </trkpt>
      <trkpt lat="47.00828" lon="-0.80771">
        <ele>105</ele>
        <time>2023-11-05T15:21:43Z</time>
      </trkpt>
      <trkpt lat="47.00845" lon="-0.80917">
        <ele>106</ele>
        <time>2023-11-05T15:23:58Z</time>
      </trkpt>
      <trkpt lat="47.00824" lon="-0.80973">
        <ele>108</ele>
        <time>2023-11-05T15:24:56Z</time>
      </trkpt>
      <trkpt lat="47.00847" lon="-0.81029">
        <ele>108</ele>
        <time>2023-11-05T15:25:56Z</time>
      </trkpt>
      <trkpt lat="47.00845" lon="-0.81095">
        <ele>109</ele>
        <time>2023-11-05T15:26:56Z</time>
      </trkpt>
      <trkpt lat="47.0086" lon="-0.81148">
        <ele>107</ele>
        <time>2023-11-05T15:27:48Z</time>
      </trkpt>
      <trkpt lat="47.00863" lon="-0.81249">
        <ele>108</ele>
        <time>2023-11-05T15:29:20Z</time>
      </trkpt>
      <trkpt lat="47.00882" lon="-0.81307">
        <ele>107</ele>
        <time>2023-11-05T15:30:19Z</time>
      </trkpt>
      <trkpt lat="47.00867" lon="-0.81353">
        <ele>108</ele>
        <time>2023-11-05T15:31:05Z</time>
      </trkpt>
      <trkpt lat="47.00954" lon="-0.81527">
        <ele>104</ele>
        <time>2023-11-05T15:34:21Z</time>
      </trkpt>
      <trkpt lat="47.00952" lon="-0.81676">
        <ele>106</ele>
        <time>2023-11-05T15:36:37Z</time>
      </trkpt>
      <trkpt lat="47.00921" lon="-0.81729">
        <ele>107</ele>
        <time>2023-11-05T15:37:41Z</time>
      </trkpt>
      <trkpt lat="47.0097" lon="-0.81844">
        <ele>104</ele>
        <time>2023-11-05T15:39:44Z</time>
      </trkpt>
      <trkpt lat="47.0086" lon="-0.81985">
        <ele>105</ele>
        <time>2023-11-05T15:42:59Z</time>
      </trkpt>
      <trkpt lat="47.00809" lon="-0.82047">
        <ele>105</ele>
        <time>2023-11-05T15:44:27Z</time>
      </trkpt>
      <trkpt lat="47.00792" lon="-0.82133">
        <ele>104</ele>
        <time>2023-11-05T15:45:49Z</time>
      </trkpt>
      <trkpt lat="47.00733" lon="-0.82176">
        <ele>105</ele>
        <time>2023-11-05T15:47:17Z</time>
      </trkpt>
      <trkpt lat="47.00686" lon="-0.82254">
        <ele>106</ele>
        <time>2023-11-05T15:48:51Z</time>
      </trkpt>
      <trkpt lat="47.00616" lon="-0.82304">
        <ele>109</ele>
        <time>2023-11-05T15:50:35Z</time>
      </trkpt>
      <trkpt lat="47.00616" lon="-0.82339">
        <ele>108</ele>
        <time>2023-11-05T15:51:07Z</time>
      </trkpt>
      <trkpt lat="47.0072" lon="-0.82313">
        <ele>104</ele>
        <time>2023-11-05T15:53:28Z</time>
      </trkpt>
      <trkpt lat="47.00798" lon="-0.82445">
        <ele>104</ele>
        <time>2023-11-05T15:56:07Z</time>
      </trkpt>
      <trkpt lat="47.00783" lon="-0.82586">
        <ele>105</ele>
        <time>2023-11-05T15:58:17Z</time>
      </trkpt>
      <trkpt lat="47.00975" lon="-0.8275">
        <ele>105</ele>
        <time>2023-11-05T16:03:13Z</time>
      </trkpt>
      <trkpt lat="47.01103" lon="-0.82537">
        <ele>104</ele>
        <time>2023-11-05T16:07:32Z</time>
      </trkpt>
      <trkpt lat="47.01205" lon="-0.82449">
        <ele>103</ele>
        <time>2023-11-05T16:10:10Z</time>
      </trkpt>
      <trkpt lat="47.01284" lon="-0.82423">
        <ele>104</ele>
        <time>2023-11-05T16:11:58Z</time>
      </trkpt>
      <trkpt lat="47.01333" lon="-0.82387">
        <ele>103</ele>
        <time>2023-11-05T16:13:11Z</time>
      </trkpt>
      <trkpt lat="47.01426" lon="-0.82416">
        <ele>106</ele>
        <time>2023-11-05T16:15:18Z</time>
      </trkpt>
      <trkpt lat="47.01478" lon="-0.82385">
        <ele>105</ele>
        <time>2023-11-05T16:16:33Z</time>
      </trkpt>
      <trkpt lat="47.01517" lon="-0.82395">
        <ele>104</ele>
        <time>2023-11-05T16:17:25Z</time>
      </trkpt>
      <trkpt lat="47.01568" lon="-0.82498">
        <ele>103</ele>
        <time>2023-11-05T16:19:21Z</time>
      </trkpt>
      <trkpt lat="47.01584" lon="-0.82583">
        <ele>103</ele>
        <time>2023-11-05T16:20:41Z</time>
      </trkpt>
      <trkpt lat="47.01554" lon="-0.82738">
        <ele>104</ele>
        <time>2023-11-05T16:23:08Z</time>
      </trkpt>
      <trkpt lat="47.01505" lon="-0.82829">
        <ele>104</ele>
        <time>2023-11-05T16:24:53Z</time>
      </trkpt>
      <trkpt lat="47.01508" lon="-0.82885">
        <ele>105</ele>
        <time>2023-11-05T16:25:45Z</time>
      </trkpt>
      <trkpt lat="47.01478" lon="-0.82938">
        <ele>106</ele>
        <time>2023-11-05T16:26:47Z</time>
      </trkpt>
      <trkpt lat="47.01497" lon="-0.82971">
        <ele>106</ele>
        <time>2023-11-05T16:27:27Z</time>
      </trkpt>
      <trkpt lat="47.01538" lon="-0.82956">
        <ele>107</ele>
        <time>2023-11-05T16:28:23Z</time>
      </trkpt>
      <trkpt lat="47.01614" lon="-0.8284">
        <ele>106</ele>
        <time>2023-11-05T16:30:49Z</time>
      </trkpt>
      <trkpt lat="47.01753" lon="-0.82804">
        <ele>104</ele>
        <time>2023-11-05T16:33:58Z</time>
      </trkpt>
      <trkpt lat="47.0187" lon="-0.82788">
        <ele>104</ele>
        <time>2023-11-05T16:36:35Z</time>
      </trkpt>
      <trkpt lat="47.01963" lon="-0.8279">
        <ele>106</ele>
        <time>2023-11-05T16:38:39Z</time>
      </trkpt>
      <trkpt lat="47.01956" lon="-0.82834">
        <ele>107</ele>
        <time>2023-11-05T16:39:20Z</time>
      </trkpt>
      <trkpt lat="47.01985" lon="-0.82796">
        <ele>106</ele>
        <time>2023-11-05T16:40:12Z</time>
      </trkpt>
      <trkpt lat="47.02058" lon="-0.82745">
        <ele>108</ele>
        <time>2023-11-05T16:42:00Z</time>
      </trkpt>
      <trkpt lat="47.02053" lon="-0.8272">
        <ele>107</ele>
        <time>2023-11-05T16:42:23Z</time>
      </trkpt>
      <trkpt lat="47.02075" lon="-0.82682">
        <ele>106</ele>
        <time>2023-11-05T16:43:09Z</time>
      </trkpt>
      <trkpt lat="47.02146" lon="-0.82672">
        <ele>107</ele>
        <time>2023-11-05T16:44:44Z</time>
      </trkpt>
      <trkpt lat="47.02145" lon="-0.82585">
        <ele>104</ele>
        <time>2023-11-05T16:46:03Z</time>
      </trkpt>
      <trkpt lat="47.02133" lon="-0.82454">
        <ele>103</ele>
        <time>2023-11-05T16:48:03Z</time>
      </trkpt>
      <trkpt lat="47.02102" lon="-0.82333">
        <ele>100</ele>
        <time>2023-11-05T16:50:01Z</time>
      </trkpt>
      <trkpt lat="47.02072" lon="-0.82253">
        <ele>98</ele>
        <time>2023-11-05T16:51:24Z</time>
      </trkpt>
      <trkpt lat="47.02072" lon="-0.8219">
        <ele>97</ele>
        <time>2023-11-05T16:52:21Z</time>
      </trkpt>
      <trkpt lat="47.02115" lon="-0.82182">
        <ele>94</ele>
        <time>2023-11-05T16:53:19Z</time>
      </trkpt>
      <trkpt lat="47.02128" lon="-0.82137">
        <ele>93</ele>
        <time>2023-11-05T16:54:03Z</time>
      </trkpt>
      <trkpt lat="47.02188" lon="-0.82197">
        <ele>91</ele>
        <time>2023-11-05T16:55:40Z</time>
      </trkpt>
      <trkpt lat="47.02193" lon="-0.82108">
        <ele>91</ele>
        <time>2023-11-05T16:57:02Z</time>
      </trkpt>
      <trkpt lat="47.02144" lon="-0.82068">
        <ele>95</ele>
        <time>2023-11-05T16:58:16Z</time>
      </trkpt>
      <trkpt lat="47.02134" lon="-0.81972">
        <ele>99</ele>
        <time>2023-11-05T16:59:45Z</time>
      </trkpt>
      <trkpt lat="47.02131" lon="-0.81881">
        <ele>101</ele>
        <time>2023-11-05T17:01:08Z</time>
      </trkpt>
      <trkpt lat="47.02158" lon="-0.8177">
        <ele>103</ele>
        <time>2023-11-05T17:02:55Z</time>
      </trkpt>
      <trkpt lat="47.02157" lon="-0.8171">
        <ele>105</ele>
        <time>2023-11-05T17:03:49Z</time>
      </trkpt>
      <trkpt lat="47.02147" lon="-0.81646">
        <ele>108</ele>
        <time>2023-11-05T17:04:49Z</time>
      </trkpt>
      <trkpt lat="47.02126" lon="-0.81637">
        <ele>108</ele>
        <time>2023-11-05T17:05:18Z</time>
      </trkpt>
      <trkpt lat="47.02107" lon="-0.81713">
        <ele>105</ele>
        <time>2023-11-05T17:06:32Z</time>
      </trkpt>
      <trkpt lat="47.02071" lon="-0.81708">
        <ele>105</ele>
        <time>2023-11-05T17:07:20Z</time>
      </trkpt>
      <trkpt lat="47.01942" lon="-0.81745">
        <ele>107</ele>
        <time>2023-11-05T17:10:16Z</time>
      </trkpt>
      <trkpt lat="47.01904" lon="-0.81768">
        <ele>107</ele>
        <time>2023-11-05T17:11:11Z</time>
      </trkpt>
      <trkpt lat="47.01848" lon="-0.81857">
        <ele>105</ele>
        <time>2023-11-05T17:13:01Z</time>
      </trkpt>
      <trkpt lat="47.01814" lon="-0.81873">
        <ele>104</ele>
        <time>2023-11-05T17:13:48Z</time>
      </trkpt>
      <trkpt lat="47.01731" lon="-0.81831">
        <ele>104</ele>
        <time>2023-11-05T17:15:46Z</time>
      </trkpt>
      <trkpt lat="47.01685" lon="-0.8179">
        <ele>104</ele>
        <time>2023-11-05T17:16:57Z</time>
      </trkpt>
      <trkpt lat="47.01647" lon="-0.81661">
        <ele>105</ele>
        <time>2023-11-05T17:19:05Z</time>
      </trkpt>
      <trkpt lat="47.01555" lon="-0.8157">
        <ele>105</ele>
        <time>2023-11-05T17:21:33Z</time>
      </trkpt>
      <trkpt lat="47.01415" lon="-0.8121">
        <ele>107</ele>
        <time>2023-11-05T17:27:50Z</time>
      </trkpt>
      <trkpt lat="47.01246" lon="-0.81229">
        <ele>103</ele>
        <time>2023-11-05T17:31:37Z</time>
      </trkpt>
      <trkpt lat="47.01213" lon="-0.81227">
        <ele>103</ele>
        <time>2023-11-05T17:32:21Z</time>
      </trkpt>
      <trkpt lat="47.01186" lon="-0.81195">
        <ele>104</ele>
        <time>2023-11-05T17:33:07Z</time>
      </trkpt>
      <trkpt lat="47.0116" lon="-0.80978">
        <ele>106</ele>
        <time>2023-11-05T17:36:27Z</time>
      </trkpt>
      <trkpt lat="47.01167" lon="-0.80883">
        <ele>107</ele>
        <time>2023-11-05T17:37:54Z</time>
      </trkpt>
      <trkpt lat="47.01104" lon="-0.80773">
        <ele>105</ele>
        <time>2023-11-05T17:40:05Z</time>
      </trkpt>
      <trkpt lat="47.0108" lon="-0.80666">
        <ele>104</ele>
        <time>2023-11-05T17:41:48Z</time>
      </trkpt>
      <trkpt lat="47.01126" lon="-0.80486">
        <ele>107</ele>
        <time>2023-11-05T17:44:43Z</time>
      </trkpt>
      <trkpt lat="47.01096" lon="-0.80405">
        <ele>107</ele>
        <time>2023-11-05T17:46:06Z</time>
      </trkpt>
      <trkpt lat="47.01107" lon="-0.80295">
        <ele>105</ele>
        <time>2023-11-05T17:47:48Z</time>
      </trkpt>
      <trkpt lat="47.01135" lon="-0.80245">
        <ele>106</ele>
        <time>2023-11-05T17:48:46Z</time>
      </trkpt>
      <trkpt lat="47.01221" lon="-0.80281">
        <ele>110</ele>
        <time>2023-11-05T17:50:46Z</time>
      </trkpt>
      <trkpt lat="47.01268" lon="-0.80276">
        <ele>110</ele>
        <time>2023-11-05T17:51:49Z</time>
      </trkpt>
      <trkpt lat="47.01275" lon="-0.80222">
        <ele>111</ele>
        <time>2023-11-05T17:52:39Z</time>
      </trkpt>
      <trkpt lat="47.01222" lon="-0.80203">
        <ele>110</ele>
        <time>2023-11-05T17:53:51Z</time>
      </trkpt>
      <trkpt lat="47.01121" lon="-0.80071">
        <ele>107</ele>
        <time>2023-11-05T17:56:52Z</time>
      </trkpt>
      <trkpt lat="47.01117" lon="-0.79986">
        <ele>109</ele>
        <time>2023-11-05T17:58:10Z</time>
      </trkpt>
      <trkpt lat="47.01043" lon="-0.79928">
        <ele>106</ele>
        <time>2023-11-05T18:00:02Z</time>
      </trkpt>
      <trkpt lat="47.01002" lon="-0.79863">
        <ele>105</ele>
        <time>2023-11-05T18:01:22Z</time>
      </trkpt>
      <trkpt lat="47.00985" lon="-0.79778">
        <ele>106</ele>
        <time>2023-11-05T18:02:43Z</time>
      </trkpt>
      <trkpt lat="47.00976" lon="-0.79671">
        <ele>106</ele>
        <time>2023-11-05T18:04:21Z</time>
      </trkpt>
      <trkpt lat="47.01015" lon="-0.79606">
        <ele>106</ele>
        <time>2023-11-05T18:05:40Z</time>
      </trkpt>
      <trkpt lat="47.01049" lon="-0.79568">
        <ele>107</ele>
        <time>2023-11-05T18:06:37Z</time>
      </trkpt>
      <trkpt lat="47.01086" lon="-0.79551">
        <ele>109</ele>
        <time>2023-11-05T18:07:28Z</time>
      </trkpt>
      <trkpt lat="47.01123" lon="-0.79478">
        <ele>109</ele>
        <time>2023-11-05T18:08:51Z</time>
      </trkpt>
      <trkpt lat="47.01208" lon="-0.79376">
        <ele>110</ele>
        <time>2023-11-05T18:11:18Z</time>
      </trkpt>
      <trkpt lat="47.01231" lon="-0.79325">
        <ele>110</ele>
        <time>2023-11-05T18:12:13Z</time>
      </trkpt>
      <trkpt lat="47.01222" lon="-0.79314">
        <ele>110</ele>
        <time>2023-11-05T18:12:29Z</time>
      </trkpt>
      <trkpt lat="47.01189" lon="-0.79346">
        <ele>109</ele>
        <time>2023-11-05T18:13:22Z</time>
      </trkpt>
      <trkpt lat="47.0111" lon="-0.79422">
        <ele>108</ele>
        <time>2023-11-05T18:15:28Z</time>
      </trkpt>
      <trkpt lat="47.00988" lon="-0.79494">
        <ele>103</ele>
        <time>2023-11-05T18:18:23Z</time>
      </trkpt>
      <trkpt lat="47.0093" lon="-0.79501">
        <ele>104</ele>
        <time>2023-11-05T18:19:41Z</time>
      </trkpt>
      <trkpt lat="47.00895" lon="-0.79476">
        <ele>104</ele>
        <time>2023-11-05T18:20:33Z</time>
      </trkpt>
      <trkpt lat="47.00846" lon="-0.79338">
        <ele>108</ele>
        <time>2023-11-05T18:22:55Z</time>
      </trkpt>
      <trkpt lat="47.00856" lon="-0.79257">
        <ele>113</ele>
        <time>2023-11-05T18:24:09Z</time>
      </trkpt>
      <trkpt lat="47.00856" lon="-0.79231">
        <ele>113</ele>
        <time>2023-11-05T18:24:33Z</time>
      </trkpt>
      <trkpt lat="47.0087" lon="-0.79118">
        <ele>114</ele>
        <time>2023-11-05T18:26:18Z</time>
      </trkpt>
      <trkpt lat="47.00872" lon="-0.79007">
        <ele>112</ele>
        <time>2023-11-05T18:27:59Z</time>
      </trkpt>
      <trkpt lat="47.00873" lon="-0.78886">
        <ele>110</ele>
        <time>2023-11-05T18:29:49Z</time>
      </trkpt>
      <trkpt lat="47.00843" lon="-0.78833">
        <ele>107</ele>
        <time>2023-11-05T18:30:51Z</time>
      </trkpt>
      <trkpt lat="47.00841" lon="-0.78795">
        <ele>108</ele>
        <time>2023-11-05T18:31:26Z</time>
      </trkpt>
      <trkpt lat="47.00813" lon="-0.78775">
        <ele>107</ele>
        <time>2023-11-05T18:32:08Z</time>
      </trkpt>
      <trkpt lat="47.00763" lon="-0.78783">
        <ele>105</ele>
        <time>2023-11-05T18:33:15Z</time>
      </trkpt>
      <trkpt lat="47.00697" lon="-0.78745">
        <ele>104</ele>
        <time>2023-11-05T18:34:49Z</time>
      </trkpt>
      <trkpt lat="47.00647" lon="-0.78672">
        <ele>105</ele>
        <time>2023-11-05T18:36:24Z</time>
      </trkpt>
      <trkpt lat="47.00606" lon="-0.78512">
        <ele>106</ele>
        <time>2023-11-05T18:38:59Z</time>
      </trkpt>
      <trkpt lat="47.00557" lon="-0.78511">
        <ele>104</ele>
        <time>2023-11-05T18:40:04Z</time>
      </trkpt>
      <trkpt lat="47.0054" lon="-0.78471">
        <ele>104</ele>
        <time>2023-11-05T18:40:47Z</time>
      </trkpt>
      <trkpt lat="47.00488" lon="-0.78453">
        <ele>104</ele>
        <time>2023-11-05T18:41:59Z</time>
      </trkpt>
      <trkpt lat="47.00315" lon="-0.78233">
        <ele>104</ele>
        <time>2023-11-05T18:47:04Z</time>
      </trkpt>
      <trkpt lat="47.00307" lon="-0.78198">
        <ele>104</ele>
        <time>2023-11-05T18:47:38Z</time>
      </trkpt>
      <trkpt lat="47.00317" lon="-0.78151">
        <ele>105</ele>
        <time>2023-11-05T18:48:23Z</time>
      </trkpt>
      <trkpt lat="47.00458" lon="-0.77984">
        <ele>106</ele>
        <time>2023-11-05T18:52:25Z</time>
      </trkpt>
      <trkpt lat="47.00481" lon="-0.77975">
        <ele>107</ele>
        <time>2023-11-05T18:52:56Z</time>
      </trkpt>
      <trkpt lat="47.00475" lon="-0.7795">
        <ele>107</ele>
        <time>2023-11-05T18:53:20Z</time>
      </trkpt>
      <trkpt lat="47.00462" lon="-0.77891">
        <ele>107</ele>
        <time>2023-11-05T18:54:17Z</time>
      </trkpt>
      <trkpt lat="47.00456" lon="-0.77763">
        <ele>108</ele>
        <time>2023-11-05T18:56:14Z</time>
      </trkpt>
      <trkpt lat="47.00439" lon="-0.77655">
        <ele>107</ele>
        <time>2023-11-05T18:57:54Z</time>
      </trkpt>
      <trkpt lat="47.00423" lon="-0.77569">
        <ele>106</ele>
        <time>2023-11-05T18:59:16Z</time>
      </trkpt>
      <trkpt lat="47.00442" lon="-0.7751">
        <ele>109</ele>
        <time>2023-11-05T19:00:15Z</time>
      </trkpt>
      <trkpt lat="47.00486" lon="-0.77426">
        <ele>113</ele>
        <time>2023-11-05T19:01:51Z</time>
      </trkpt>
      <trkpt lat="47.00476" lon="-0.77293">
        <ele>107</ele>
        <time>2023-11-05T19:03:53Z</time>
      </trkpt>
      <trkpt lat="47.00463" lon="-0.77139">
        <ele>106</ele>
        <time>2023-11-05T19:06:14Z</time>
      </trkpt>
      <trkpt lat="47.00552" lon="-0.77024">
        <ele>109</ele>
        <time>2023-11-05T19:08:53Z</time>
      </trkpt>
      <trkpt lat="47.00563" lon="-0.76997">
        <ele>108</ele>
        <time>2023-11-05T19:09:21Z</time>
      </trkpt>
      <trkpt lat="47.00554" lon="-0.76937">
        <ele>110</ele>
        <time>2023-11-05T19:10:17Z</time>
      </trkpt>
      <trkpt lat="47.00487" lon="-0.76964">
        <ele>111</ele>
        <time>2023-11-05T19:11:50Z</time>
      </trkpt>
      <trkpt lat="47.00483" lon="-0.76991">
        <ele>110</ele>
        <time>2023-11-05T19:12:15Z</time>
      </trkpt>
      <trkpt lat="47.00417" lon="-0.77056">
        <ele>107</ele>
        <time>2023-11-05T19:14:01Z</time>
      </trkpt>
      <trkpt lat="47.00374" lon="-0.77032">
        <ele>109</ele>
        <time>2023-11-05T19:15:03Z</time>
      </trkpt>
      <trkpt lat="47.0035" lon="-0.76965">
        <ele>112</ele>
        <time>2023-11-05T19:16:11Z</time>
      </trkpt>
      <trkpt lat="47.0032" lon="-0.7685">
        <ele>112</ele>
        <time>2023-11-05T19:18:03Z</time>
      </trkpt>
      <trkpt lat="47.00328" lon="-0.7679">
        <ele>113</ele>
        <time>2023-11-05T19:18:59Z</time>
      </trkpt>
      <trkpt lat="47.00303" lon="-0.76817">
        <ele>111</ele>
        <time>2023-11-05T19:19:41Z</time>
      </trkpt>
      <trkpt lat="47.00218" lon="-0.76788">
        <ele>109</ele>
        <time>2023-11-05T19:21:37Z</time>
      </trkpt>
      <trkpt lat="47.00183" lon="-0.76709">
        <ele>110</ele>
        <time>2023-11-05T19:23:03Z</time>
      </trkpt>
      <trkpt lat="47.00162" lon="-0.76584">
        <ele>111</ele>
        <time>2023-11-05T19:25:00Z</time>
      </trkpt>
      <trkpt lat="47.00153" lon="-0.7632">
        <ele>109</ele>
        <time>2023-11-05T19:29:00Z</time>
      </trkpt>
      <trkpt lat="47.00206" lon="-0.76142">
        <ele>112</ele>
        <time>2023-11-05T19:31:57Z</time>
      </trkpt>
      <trkpt lat="47.0021" lon="-0.76008">
        <ele>113</ele>
        <time>2023-11-05T19:33:59Z</time>
      </trkpt>
      <trkpt lat="47.00194" lon="-0.75942">
        <ele>112</ele>
        <time>2023-11-05T19:35:03Z</time>
      </trkpt>
      <trkpt lat="47.00149" lon="-0.75807">
        <ele>108</ele>
        <time>2023-11-05T19:37:20Z</time>
      </trkpt>
      <trkpt lat="47.00263" lon="-0.75678">
        <ele>113</ele>
        <time>2023-11-05T19:40:32Z</time>
      </trkpt>
      <trkpt lat="47.00423" lon="-0.75356">
        <ele>117</ele>
        <time>2023-11-05T19:46:34Z</time>
      </trkpt>
      <trkpt lat="47.00466" lon="-0.75243">
        <ele>121</ele>
        <time>2023-11-05T19:48:32Z</time>
      </trkpt>
      <trkpt lat="47.00485" lon="-0.75115">
        <ele>121</ele>
        <time>2023-11-05T19:50:31Z</time>
      </trkpt>
      <trkpt lat="47.00554" lon="-0.74976">
        <ele>125</ele>
        <time>2023-11-05T19:53:08Z</time>
      </trkpt>
      <trkpt lat="47.00591" lon="-0.74893">
        <ele>123</ele>
        <time>2023-11-05T19:54:38Z</time>
      </trkpt>
      <trkpt lat="47.00595" lon="-0.74846">
        <ele>121</ele>
        <time>2023-11-05T19:55:21Z</time>
      </trkpt>
      <trkpt lat="47.00578" lon="-0.74812">
        <ele>122</ele>
        <time>2023-11-05T19:56:00Z</time>
      </trkpt>
      <trkpt lat="47.00518" lon="-0.74822">
        <ele>126</ele>
        <time>2023-11-05T19:57:20Z</time>
      </trkpt>
      <trkpt lat="47.005" lon="-0.74704">
        <ele>130</ele>
        <time>2023-11-05T19:59:10Z</time>
      </trkpt>
      <trkpt lat="47.00522" lon="-0.74574">
        <ele>129</ele>
        <time>2023-11-05T20:01:12Z</time>
      </trkpt>
      <trkpt lat="47.00559" lon="-0.74465">
        <ele>123</ele>
        <time>2023-11-05T20:03:03Z</time>
      </trkpt>
      <trkpt lat="47.00604" lon="-0.7448">
        <ele>120</ele>
        <time>2023-11-05T20:04:04Z</time>
      </trkpt>
      <trkpt lat="47.00644" lon="-0.7443">
        <ele>120</ele>
        <time>2023-11-05T20:05:15Z</time>
      </trkpt>
    </trkseg>
  </trk>
</gpx>